Hourly Weather Abaete

Today, 28 September, Monday

Time Temperature Precipitation Wind Pressure Humidity
00:00 +25°C° 0 mm 0 mps 706 mmHg 29%
01:00 +24°C° 0 mm 0 mps 706 mmHg 30%
02:00 +23°C° 0 mm 0 mps 706 mmHg 32%
03:00 +25°C° 0 mm 1 mps 705 mmHg 34%
04:00 +24°C° 0 mm 1 mps 705 mmHg 35%
05:00 +22°C° 0 mm 0 mps 705 mmHg 36%
06:00 +21°C° 0 mm 0 mps 705 mmHg 37%
07:00 +27°C° 0 mm 1 mps 706 mmHg 33%
08:00 +30°C° 0 mm 2 mps 707 mmHg 28%
09:00 +35°C° 0 mm 4 mps 708 mmHg 23%
10:00 +37°C° 0 mm 3 mps 708 mmHg 20%
11:00 +39°C° 0 mm 2 mps 708 mmHg 17%
12:00 +40°C° 0 mm 2 mps 707 mmHg 14%
13:00 +41°C° 0 mm 2 mps 707 mmHg 13%
14:00 +41°C° 0 mm 2 mps 706 mmHg 13%
15:00 +41°C° 0 mm 2 mps 705 mmHg 12%
16:00 +39°C° 0 mm 1 mps 705 mmHg 14%
17:00 +35°C° 0 mm 1 mps 705 mmHg 15%
18:00 +33°C° 0 mm 1 mps 704 mmHg 17%
19:00 +32°C° 0 mm 1 mps 705 mmHg 18%
20:00 +31°C° 0 mm 1 mps 705 mmHg 20%
21:00 +30°C° 0 mm 1 mps 706 mmHg 21%
22:00 +29°C° 0 mm 1 mps 706 mmHg 22%
23:00 +29°C° 0 mm 1 mps 706 mmHg 23%

Tomorrow, 29 September, Tuesday

Time Temperature Precipitation Wind Pressure Humidity
00:00 +28°C° 0 mm 1 mps 706 mmHg 24%
01:00 +27°C° 0 mm 1 mps 706 mmHg 26%
02:00 +26°C° 0 mm 1 mps 705 mmHg 28%
03:00 +26°C° 0 mm 1 mps 705 mmHg 30%
04:00 +25°C° 0 mm 1 mps 706 mmHg 31%
05:00 +24°C° 0 mm 1 mps 706 mmHg 33%
06:00 +24°C° 0 mm 1 mps 706 mmHg 35%
07:00 +27°C° 0 mm 1 mps 707 mmHg 30%
08:00 +30°C° 0 mm 1 mps 708 mmHg 26%
09:00 +34°C° 0 mm 1 mps 709 mmHg 21%
10:00 +35°C° 0 mm 1 mps 709 mmHg 19%
11:00 +38°C° 0 mm 2 mps 708 mmHg 17%
12:00 +40°C° 0 mm 2 mps 708 mmHg 15%
13:00 +40°C° 0 mm 2 mps 708 mmHg 14%
14:00 +41°C° 0 mm 1 mps 707 mmHg 13%
15:00 +41°C° 0 mm 1 mps 706 mmHg 13%
16:00 +39°C° 0 mm 1 mps 706 mmHg 15%
17:00 +36°C° 0 mm 1 mps 706 mmHg 16%
18:00 +34°C° 0 mm 1 mps 705 mmHg 18%
19:00 +33°C° 0 mm 1 mps 706 mmHg 19%
20:00 +32°C° 0 mm 2 mps 707 mmHg 21%
21:00 +31°C° 0 mm 2 mps 708 mmHg 22%
22:00 +30°C° 0 mm 2 mps 708 mmHg 27%
23:00 +29°C° 0 mm 2 mps 708 mmHg 33%

Day after tomorrow, 30 September, Wednesday

Time Temperature Precipitation Wind Pressure Humidity
00:00 +28°C° 0 mm 2 mps 708 mmHg 38%
01:00 +28°C° 0 mm 2 mps 707 mmHg 42%
02:00 +27°C° 0 mm 2 mps 707 mmHg 45%
03:00 +26°C° 0 mm 1 mps 707 mmHg 49%
04:00 +25°C° 0 mm 1 mps 707 mmHg 51%
05:00 +25°C° 0 mm 1 mps 708 mmHg 54%
06:00 +24°C° 0 mm 1 mps 708 mmHg 57%
07:00 +27°C° 0 mm 2 mps 709 mmHg 51%
08:00 +29°C° 0 mm 2 mps 709 mmHg 44%
09:00 +32°C° 0 mm 2 mps 710 mmHg 38%
10:00 +35°C° 0 mm 3 mps 710 mmHg 33%
11:00 +37°C° 0 mm 3 mps 709 mmHg 28%
12:00 +39°C° 0 mm 3 mps 709 mmHg 23%
13:00 +39°C° 0 mm 3 mps 708 mmHg 21%
14:00 +40°C° 0 mm 3 mps 708 mmHg 19%
15:00 +40°C° 0 mm 2 mps 707 mmHg 17%
16:00 +39°C° 0 mm 2 mps 707 mmHg 19%
17:00 +37°C° 0 mm 2 mps 706 mmHg 21%
18:00 +36°C° 0 mm 2 mps 706 mmHg 23%
19:00 +35°C° 0 mm 2 mps 707 mmHg 25%
20:00 +34°C° 0 mm 3 mps 707 mmHg 28%
21:00 +33°C° 0 mm 4 mps 708 mmHg 31%
22:00 +30°C° 0 mm 3 mps 708 mmHg 35%
23:00 +29°C° 0 mm 3 mps 708 mmHg 40%

1 October, Thursday

Time Temperature Precipitation Wind Pressure Humidity
00:00 +28°C° 0 mm 2 mps 708 mmHg 44%
01:00 +27°C° 0 mm 2 mps 708 mmHg 47%
02:00 +26°C° 0 mm 1 mps 707 mmHg 50%
03:00 +25°C° 0 mm 1 mps 707 mmHg 53%
04:00 +25°C° 0 mm 1 mps 707 mmHg 54%
05:00 +25°C° 0 mm 1 mps 707 mmHg 55%
06:00 +25°C° 0 mm 1 mps 707 mmHg 57%
07:00 +27°C° 0 mm 2 mps 708 mmHg 50%
08:00 +29°C° 0 mm 2 mps 709 mmHg 42%
09:00 +33°C° 0 mm 3 mps 709 mmHg 35%
10:00 +35°C° 0 mm 3 mps 709 mmHg 30%
11:00 +37°C° 0 mm 3 mps 708 mmHg 25%
12:00 +39°C° 0 mm 3 mps 708 mmHg 20%
13:00 +39°C° 0 mm 3 mps 707 mmHg 18%
14:00 +40°C° 0 mm 3 mps 707 mmHg 17%
15:00 +40°C° 0 mm 3 mps 706 mmHg 15%
16:00 +39°C° 0 mm 3 mps 706 mmHg 17%
17:00 +37°C° 0 mm 2 mps 705 mmHg 19%
18:00 +35°C° 0 mm 2 mps 705 mmHg 21%
19:00 +34°C° 0 mm 2 mps 706 mmHg 23%
20:00 +31°C° 0 mm 3 mps 706 mmHg 26%
21:00 +30°C° 0 mm 3 mps 707 mmHg 28%
22:00 +29°C° 0 mm 3 mps 707 mmHg 32%
23:00 +28°C° 0 mm 2 mps 707 mmHg 35%

2 October, Friday

Time Temperature Precipitation Wind Pressure Humidity
00:00 +27°C° 0 mm 2 mps 707 mmHg 38%
01:00 +26°C° 0 mm 1 mps 707 mmHg 41%
02:00 +25°C° 0 mm 1 mps 707 mmHg 44%
03:00 +22°C° 0 mm 0 mps 706 mmHg 46%
04:00 +22°C° 0 mm 0 mps 706 mmHg 48%
05:00 +22°C° 0 mm 0 mps 706 mmHg 49%
06:00 +21°C° 0 mm 0 mps 707 mmHg 51%
07:00 +26°C° 0 mm 1 mps 707 mmHg 44%
08:00 +29°C° 0 mm 1 mps 708 mmHg 37%
09:00 +32°C° 0 mm 1 mps 708 mmHg 31%
10:00 +35°C° 0 mm 2 mps 708 mmHg 26%
11:00 +38°C° 0 mm 2 mps 708 mmHg 22%
12:00 +40°C° 0 mm 2 mps 708 mmHg 18%
13:00 +40°C° 0 mm 2 mps 707 mmHg 17%
14:00 +41°C° 0 mm 2 mps 707 mmHg 16%
15:00 +41°C° 0 mm 2 mps 706 mmHg 15%
16:00 +39°C° 0 mm 1 mps 706 mmHg 16%
17:00 +36°C° 0 mm 1 mps 706 mmHg 18%
18:00 +32°C° 0 mm 0 mps 705 mmHg 20%
19:00 +33°C° 0 mm 1 mps 706 mmHg 22%
20:00 +31°C° 0 mm 1 mps 706 mmHg 24%
21:00 +30°C° 0 mm 1 mps 707 mmHg 26%
22:00 +29°C° 0 mm 1 mps 707 mmHg 30%
23:00 +28°C° 0 mm 1 mps 707 mmHg 33%

3 October, Saturday

Time Temperature Precipitation Wind Pressure Humidity
00:00 +28°C° 0 mm 1 mps 707 mmHg 37%
01:00 +27°C° 0 mm 1 mps 706 mmHg 39%
02:00 +24°C° 0 mm 0 mps 706 mmHg 40%
03:00 +24°C° 0 mm 0 mps 706 mmHg 42%
04:00 +23°C° 0 mm 0 mps 706 mmHg 43%
05:00 +23°C° 0 mm 0 mps 706 mmHg 44%
06:00 +23°C° 0 mm 0 mps 706 mmHg 45%
07:00 +28°C° 0 mm 1 mps 707 mmHg 39%
08:00 +31°C° 0 mm 2 mps 708 mmHg 33%
09:00 +35°C° 0 mm 2 mps 709 mmHg 27%
10:00 +37°C° 0 mm 3 mps 709 mmHg 23%
11:00 +39°C° 0 mm 3 mps 708 mmHg 20%
12:00 +40°C° 0 mm 3 mps 708 mmHg 16%
13:00 +42°C° 0 mm 3 mps 707 mmHg 15%
14:00 +42°C° 0 mm 3 mps 707 mmHg 15%
15:00 +43°C° 0 mm 3 mps 706 mmHg 14%
16:00 +40°C° 0 mm 3 mps 706 mmHg 15%
17:00 +38°C° 0 mm 2 mps 706 mmHg 17%
18:00 +37°C° 0 mm 2 mps 706 mmHg 19%
19:00 +36°C° 0 mm 3 mps 706 mmHg 21%
20:00 +35°C° 0 mm 3 mps 707 mmHg 24%
21:00 +34°C° 0 mm 4 mps 708 mmHg 26%
22:00 +33°C° 0 mm 4 mps 708 mmHg 36%
23:00 +30°C° 0 mm 4 mps 708 mmHg 46%
Show more